Location: Apeadero de Los Molinos-Guadarrama
(40.7091°N, 4.0689°W)
Time: 02:52:08
(UTC+00:00)

ISS - Pass Details

Date: 04 October 2021
Orbit: 417 x 423 km, 51.6° (Epoch: 19 October)

Event Time Altitude Azimuth Distance (km) Brightness Sun altitude
Rises 19:06:44 0° 306° (NW) 2,364 1.2 -14.7°
Reaches altitude 10° 19:08:50 10° 307° (NW) 1,498 0.0 -15.1°
Maximum altitude 19:12:12 87° 33° (NNE) 423 -3.9 -15.8°
Enters shadow 19:13:26 36° 124° (SE) 674 -3.2 -16.0°
